Regional Weather Roundup
Issued by NWS Charleston, WV

Home | Current Version | Previous Version | Text Only | Print | Product List | Glossary On
Versions: 1 2 3 4 5 6 7 8 9 10 11 12 13 14 15 16 17 18 19 20 21 22 23 24 25 26 27 28 29 30 31 32 33 34 35 36 37 38 39 40 41 42 43 44 45 46 47 48 49
000
ASUS41 KRLX 161710
RWRRLX
West Virginia Regional Weather Roundup
National Weather Service Charleston WV
1200 PM EST MON JAN 16 2017

Note: "fair" indicates few or no clouds below 12,000 feet with no
significant weather and/or obstructions to visibility.

WVZ003-161800-
Northern Panhandle of West Virginia

CITY           SKY/WX    TMP DP  RH WIND       PRES   REMARKS
WHEELING       CLOUDY    36  29  75 CALM      30.30F
$$

WVZ009-161800-
Northwest West Virginia

CITY           SKY/WX    TMP DP  RH WIND       PRES   REMARKS
PARKERSBURG    CLOUDY    43  37  79 CALM      30.32F
$$

WVZ006-161800-
Western West Virginia

CITY           SKY/WX    TMP DP  RH WIND       PRES   REMARKS
HUNTINGTON     CLOUDY    46  43  89 CALM      30.28F FOG
$$

WVZ015-161800-
West Central West Virginia

CITY           SKY/WX    TMP DP  RH WIND       PRES   REMARKS
CHARLESTON     CLOUDY    48  44  86 CALM      30.28F
$$

WVZ022-031-161800-
North Central West Virginia

CITY           SKY/WX    TMP DP  RH WIND       PRES   REMARKS
CLARKSBURG     CLOUDY    42  37  82 CALM      30.29F
MORGANTOWN     CLOUDY    38  33  82 CALM      30.30F
$$

WVZ025-035-042-045-161800-
Southern West Virginia

CITY           SKY/WX    TMP DP  RH WIND       PRES   REMARKS
BECKLEY        CLOUDY    54  50  86 SE6       30.30F
LOGAN            N/A     55  54  94 CALM      30.28F
BLUEFIELD      PTSUNNY   57  49  74 VRB3      30.32F
LEWISBURG      FOG       44  44  99 N3        30.33F VSB 1/2
$$

WVZ047-161800-
Northern Mountains of West Virginia

CITY           SKY/WX    TMP DP  RH WIND       PRES   REMARKS
ELKINS         CLOUDY    46  41  82 CALM      30.30F
$$

WVZ052-161800-
Eastern Panhandle of West Virginia

CITY           SKY/WX    TMP DP  RH WIND       PRES   REMARKS
MARTINSBURG    CLOUDY    38  27  64 VRB3      30.39F
PETERSBURG     CLOUDY    42  34  74 CALM      30.37F
$$




USA.gov is the U.S. government's official web portal to all federal, state and local government web resources and services.